,,Stat5,,Stat1,,Stat2,,Stat3,,Stat4,,Wind1,,Wind1,
time,status,PA1M_AVG,status,PR1M_SUM,status,RH1M_AVG,status,SR1M_AVG,status,TA1M_AVG,status,W1dAve1m,status,W1sAve1m,
2001-05-08, 00:00:00,VALID,917.805,VALID,0,VALID,98.7515,VALID,0.0339617,VALID,19.3064,VALID,91,VALID,0,
2001-05-08, 00:01:00,VALID,917.809,VALID,0,VALID,98.7655,VALID,0.0169808,VALID,19.3061,VALID,88,VALID,0,
2001-05-08, 00:02:00,VALID,917.82,VALID,0,VALID,98.763,VALID,0.0679233,VALID,19.2701,VALID,85,VALID,0,
2001-05-08, 00:03:00,VALID,917.808,VALID,0,VALID,98.7897,VALID,0.0679233,VALID,19.2738,VALID,90,VALID,0,
2001-05-08, 00:04:00,VALID,917.806,VALID,0,VALID,98.824,VALID,0.0169808,VALID,19.2604,VALID,92,VALID,0,
2001-05-08, 00:05:00,VALID,917.79,VALID,0,VALID,98.8342,VALID,0,VALID,19.2679,VALID,116,VALID,0,
2001-05-08, 00:06:00,VALID,917.77,VALID,0,VALID,98.8533,VALID,0.0339617,VALID,19.2512,VALID,109,VALID,0,
2001-05-08, 00:07:00,VALID,917.757,VALID,0,VALID,98.8596,VALID,0,VALID,19.245,VALID,100,VALID,0,
2001-05-08, 00:08:00,VALID,917.739,VALID,0,VALID,98.8787,VALID,0.0169808,VALID,19.2383,VALID,100,VALID,0,
2001-05-08, 00:09:00,VALID,917.719,VALID,0,VALID,98.894,VALID,-0.0339617,VALID,19.2432,VALID,126,VALID,0,
2001-05-08, 00:10:00,VALID,917.702,VALID,0,VALID,98.9054,VALID,-0.0849042,VALID,19.2273,VALID,136,VALID,0,
2001-05-08, 00:11:00,VALID,917.68,VALID,0,VALID,98.8838,VALID,-0.0679233,VALID,19.2109,VALID,143,VALID,0,
2001-05-08, 00:12:00,VALID,917.664,VALID,0,VALID,98.8558,VALID,-0.0679233,VALID,19.2015,VALID,149,VALID,0,
2001-05-08, 00:13:00,VALID,917.665,VALID,0,VALID,98.8482,VALID,-0.0679233,VALID,19.1717,VALID,164,VALID,0,
2001-05-08, 00:14:00,VALID,917.647,VALID,0,VALID,98.8189,VALID,-0.101885,VALID,19.1685,VALID,177,VALID,0,
2001-05-08, 00:15:00,VALID,917.648,VALID,0,VALID,98.8139,VALID,-0.0509425,VALID,19.1588,VALID,185,VALID,0,
2001-05-08, 00:16:00,VALID,917.649,VALID,0,VALID,98.8062,VALID,-0.0849042,VALID,19.1689,VALID,198,VALID,0,
2001-05-08, 00:17:00,VALID,917.639,VALID,0,VALID,98.824,VALID,-0.0679233,VALID,19.1784,VALID,199,VALID,0,
2001-05-08, 00:18:00,VALID,917.643,VALID,0,VALID,98.8278,VALID,-0.101885,VALID,19.1886,VALID,186,VALID,0,
2001-05-08, 00:19:00,VALID,917.65,VALID,0,VALID,98.8215,VALID,-0.0679233,VALID,19.1844,VALID,178,VALID,0,
2001-05-08, 00:20:00,VALID,917.644,VALID,0,VALID,98.796,VALID,-0.101885,VALID,19.1948,VALID,175,VALID,0,
2001-05-08, 00:21:00,VALID,917.629,VALID,0,VALID,98.7795,VALID,-0.0679233,VALID,19.2017,VALID,161,VALID,0,
2001-05-08, 00:22:00,VALID,917.621,VALID,0,VALID,98.7299,VALID,-0.0679233,VALID,19.1881,VALID,130,VALID,0,
2001-05-08, 00:23:00,VALID,917.618,VALID,0,VALID,98.6981,VALID,-0.0679233,VALID,19.1821,VALID,125,VALID,0,
2001-05-08, 00:24:00,VALID,917.609,VALID,0,VALID,98.6663,VALID,-0.0169808,VALID,19.1774,VALID,116,VALID,0,
2001-05-08, 00:25:00,VALID,917.605,VALID,0,VALID,98.5989,VALID,0.0169808,VALID,19.1707,VALID,115,VALID,0,
2001-05-08, 00:26:00,VALID,917.606,VALID,0,VALID,98.4883,VALID,0,VALID,19.168,VALID,64,VALID,0,
2001-05-08, 00:27:00,VALID,917.615,VALID,0,VALID,98.4553,VALID,0.0169808,VALID,19.1903,VALID,34,VALID,0,
2001-05-08, 00:28:00,VALID,917.6,VALID,0,VALID,98.4438,VALID,0,VALID,19.2062,VALID,21,VALID,0,
2001-05-08, 00:29:00,VALID,917.613,VALID,0,VALID,98.4858,VALID,0.0169808,VALID,19.2226,VALID,350,VALID,0,
2001-05-08, 00:30:00,VALID,917.598,VALID,0,VALID,98.4934,VALID,-0.0169808,VALID,19.2289,VALID,349,VALID,0,
2001-05-08, 00:31:00,VALID,917.608,VALID,0,VALID,98.5201,VALID,0,VALID,19.2326,VALID,348,VALID,0,
2001-05-08, 00:32:00,VALID,917.612,VALID,0,VALID,98.5354,VALID,0,VALID,19.2326,VALID,281,VALID,0,
2001-05-08, 00:33:00,VALID,917.594,VALID,0,VALID,98.5633,VALID,0,VALID,19.2162,VALID,251,VALID,0,
2001-05-08, 00:34:00,VALID,917.603,VALID,0,VALID,98.5646,VALID,0.0169808,VALID,19.2264,VALID,251,VALID,0,
2001-05-08, 00:35:00,VALID,917.601,VALID,0,VALID,98.5697,VALID,0,VALID,19.2167,VALID,251,VALID,0,
2001-05-08, 00:36:00,VALID,917.588,VALID,0,VALID,98.5989,VALID,0,VALID,19.2065,VALID,251,VALID,0,
2001-05-08, 00:37:00,VALID,917.584,VALID,0,VALID,98.6307,VALID,0.0339617,VALID,19.2137,VALID,251,VALID,0,
2001-05-08, 00:38:00,VALID,917.571,VALID,0,VALID,98.6536,VALID,0,VALID,19.2097,VALID,232,VALID,0,
2001-05-08, 00:39:00,VALID,917.553,VALID,0,VALID,98.6816,VALID,-0.0849042,VALID,19.2114,VALID,146,VALID,0,
2001-05-08, 00:40:00,VALID,917.537,VALID,0,VALID,98.6943,VALID,-0.101885,VALID,19.2015,VALID,141,VALID,0,
2001-05-08, 00:41:00,VALID,917.537,VALID,0,VALID,98.721,VALID,-0.101885,VALID,19.1881,VALID,129,VALID,0,
2001-05-08, 00:42:00,VALID,917.524,VALID,0,VALID,98.7108,VALID,-0.0679233,VALID,19.1789,VALID,120,VALID,0,
2001-05-08, 00:43:00,VALID,917.524,VALID,0,VALID,98.7121,VALID,-0.0849042,VALID,19.1662,VALID,120,VALID,0,
2001-05-08, 00:44:00,VALID,917.522,VALID,0,VALID,98.6956,VALID,-0.0509425,VALID,19.1302,VALID,109,VALID,0,
2001-05-08, 00:45:00,VALID,917.507,VALID,0,VALID,98.6142,VALID,-0.0849042,VALID,19.0949,VALID,101,VALID,0,
2001-05-08, 00:46:00,VALID,917.498,VALID,0,VALID,98.5315,VALID,-0.0679233,VALID,19.075,VALID,94,VALID,0,
2001-05-08, 00:47:00,VALID,917.487,VALID,0,VALID,98.4743,VALID,-0.101885,VALID,19.069,VALID,90,VALID,0,
2001-05-08, 00:48:00,VALID,917.475,VALID,0,VALID,98.3879,VALID,-0.0849042,VALID,19.0529,VALID,90,VALID,0,
2001-05-08, 00:49:00,VALID,917.453,VALID,0,VALID,98.3014,VALID,-0.0849042,VALID,19.0728,VALID,105,VALID,0,
2001-05-08, 00:50:00,VALID,917.438,VALID,0,VALID,98.1768,VALID,-0.101885,VALID,19.0594,VALID,120,VALID,0,
2001-05-08, 00:51:00,VALID,917.443,VALID,0,VALID,98.0763,VALID,-0.0849042,VALID,19.0725,VALID,121,VALID,0,
2001-05-08, 00:52:00,VALID,917.423,VALID,0,VALID,97.9441,VALID,-0.101885,VALID,19.0917,VALID,121,VALID,0,
2001-05-08, 00:53:00,VALID,917.418,VALID,0,VALID,97.8144,VALID,-0.101885,VALID,19.0884,VALID,121,VALID,0,
2001-05-08, 00:54:00,VALID,917.411,VALID,0,VALID,97.7419,VALID,-0.0849042,VALID,19.1145,VALID,121,VALID,0,
2001-05-08, 00:55:00,VALID,917.417,VALID,0,VALID,97.7203,VALID,-0.0679233,VALID,19.1212,VALID,121,VALID,0,
2001-05-08, 00:56:00,VALID,917.417,VALID,0,VALID,97.6834,VALID,-0.101885,VALID,19.1212,VALID,127,VALID,0,
2001-05-08, 00:57:00,VALID,917.407,VALID,0,VALID,97.6986,VALID,-0.101885,VALID,19.108,VALID,185,VALID,0,
2001-05-08, 00:58:00,VALID,917.422,VALID,0,VALID,97.4825,VALID,-0.0849042,VALID,19.0884,VALID,190,VALID,0,
2001-05-08, 00:59:00,VALID,917.429,VALID,0,VALID,97.6071,VALID,-0.0679233,VALID,19.1016,VALID,190,VALID,0,
2001-05-08, 01:00:00,VALID,917.425,VALID,0,VALID,97.602,VALID,-0.0509425,VALID,19.1138,VALID,190,VALID,0,
2001-05-08, 01:01:00,VALID,917.436,VALID,0,VALID,97.5155,VALID,-0.0679233,VALID,19.1143,VALID,190,VALID,0,
2001-05-08, 01:02:00,VALID,917.44,VALID,0,VALID,97.5461,VALID,-0.0509425,VALID,19.1078,VALID,190,VALID,0,
2001-05-08, 01:03:00,VALID,917.466,VALID,0,VALID,97.5906,VALID,-0.0679233,VALID,19.1147,VALID,264,VALID,0,
2001-05-08, 01:04:00,VALID,917.482,VALID,0,VALID,97.6478,VALID,-0.101885,VALID,19.115,VALID,289,VALID,0,
2001-05-08, 01:05:00,VALID,917.491,VALID,0,VALID,97.6745,VALID,-0.101885,VALID,19.1013,VALID,289,VALID,0,
2001-05-08, 01:06:00,VALID,917.493,VALID,0,VALID,97.6719,VALID,-0.118866,VALID,19.0986,VALID,289,VALID,0,
2001-05-08, 01:07:00,VALID,917.49,VALID,0,VALID,97.6783,VALID,-0.101885,VALID,19.0986,VALID,289,VALID,0,
2001-05-08, 01:08:00,VALID,917.486,VALID,0,VALID,97.6847,VALID,-0.0849042,VALID,19.0919,VALID,289,VALID,0,
2001-05-08, 01:09:00,VALID,917.475,VALID,0,VALID,97.6745,VALID,-0.0339617,VALID,19.0912,VALID,289,VALID,0,
2001-05-08, 01:10:00,VALID,917.477,VALID,0,VALID,97.7037,VALID,0,VALID,19.0748,VALID,289,VALID,0,
2001-05-08, 01:11:00,VALID,917.465,VALID,0,VALID,97.7648,VALID,0,VALID,19.0646,VALID,289,VALID,0,
2001-05-08, 01:12:00,VALID,917.451,VALID,0,VALID,97.7533,VALID,0,VALID,19.0653,VALID,289,VALID,0,
2001-05-08, 01:13:00,VALID,917.438,VALID,0,VALID,97.8067,VALID,0.0169808,VALID,19.0616,VALID,289,VALID,0,
2001-05-08, 01:14:00,VALID,917.437,VALID,0,VALID,97.8296,VALID,0,VALID,19.0425,VALID,289,VALID,0,
2001-05-08, 01:15:00,VALID,917.424,VALID,0,VALID,97.8055,VALID,0,VALID,19.0162,VALID,289,VALID,0,
2001-05-08, 01:16:00,VALID,917.405,VALID,0,VALID,97.8996,VALID,0,VALID,19.0164,VALID,289,VALID,0,
2001-05-08, 01:17:00,VALID,917.374,VALID,0,VALID,98.1221,VALID,0,VALID,19.0489,VALID,289,VALID,0,
2001-05-08, 01:18:00,VALID,917.373,VALID,0,VALID,98.276,VALID,0.0169808,VALID,19.0708,VALID,289,VALID,0,
2001-05-08, 01:19:00,VALID,917.357,VALID,0,VALID,98.3662,VALID,0,VALID,19.0939,VALID,291,VALID,0,
2001-05-08, 01:20:00,VALID,917.343,VALID,0,VALID,98.4324,VALID,0,VALID,19.0909,VALID,304,VALID,0,
2001-05-08, 01:21:00,VALID,917.349,VALID,0,VALID,98.4832,VALID,0,VALID,19.0808,VALID,310,VALID,0,
2001-05-08, 01:22:00,VALID,917.328,VALID,0,VALID,98.5455,VALID,0,VALID,19.0972,VALID,310,VALID,0,
2001-05-08, 01:23:00,VALID,917.329,VALID,0,VALID,98.6028,VALID,0,VALID,19.1071,VALID,310,VALID,0,
2001-05-08, 01:24:00,VALID,917.317,VALID,0,VALID,98.66,VALID,0,VALID,19.1103,VALID,310,VALID,0,
2001-05-08, 01:25:00,VALID,917.313,VALID,0,VALID,98.6981,VALID,0,VALID,19.1066,VALID,317,VALID,0,
2001-05-08, 01:26:00,VALID,917.314,VALID,0,VALID,98.7426,VALID,0,VALID,19.1133,VALID,318,VALID,0,
2001-05-08, 01:27:00,VALID,917.291,VALID,0,VALID,98.7681,VALID,0,VALID,19.1066,VALID,318,VALID,0,
2001-05-08, 01:28:00,VALID,917.291,VALID,0,VALID,98.8011,VALID,-0.0169808,VALID,19.1135,VALID,318,VALID,0,
2001-05-08, 01:29:00,VALID,917.279,VALID,0,VALID,98.8316,VALID,0,VALID,19.1163,VALID,318,VALID,0,
2001-05-08, 01:30:00,VALID,917.264,VALID,0,VALID,98.8647,VALID,0,VALID,19.1329,VALID,318,VALID,0,
2001-05-08, 01:31:00,VALID,917.248,VALID,0,VALID,98.8812,VALID,0,VALID,19.1362,VALID,318,VALID,0,
2001-05-08, 01:32:00,VALID,917.253,VALID,0,VALID,98.913,VALID,0,VALID,19.1525,VALID,317,VALID,0,
2001-05-08, 01:33:00,VALID,917.238,VALID,0,VALID,98.9423,VALID,-0.0169808,VALID,19.1458,VALID,318,VALID,0,
2001-05-08, 01:34:00,VALID,917.228,VALID,0,VALID,98.9525,VALID,0,VALID,19.1525,VALID,318,VALID,0,
2001-05-08, 01:35:00,VALID,917.231,VALID,0,VALID,98.9639,VALID,0,VALID,19.1426,VALID,318,VALID,0,
2001-05-08, 01:36:00,VALID,917.235,VALID,0,VALID,98.9715,VALID,0,VALID,19.1625,VALID,318,VALID,0,
2001-05-08, 01:37:00,VALID,917.24,VALID,0,VALID,98.9779,VALID,0,VALID,19.1491,VALID,318,VALID,0,
2001-05-08, 01:38:00,VALID,917.238,VALID,0,VALID,98.9792,VALID,-0.0169808,VALID,19.1394,VALID,318,VALID,0,
2001-05-08, 01:39:00,VALID,917.25,VALID,0,VALID,99.002,VALID,0,VALID,19.1458,VALID,318,VALID,0,
2001-05-08, 01:40:00,VALID,917.257,VALID,0,VALID,99.0008,VALID,0,VALID,19.1491,VALID,318,VALID,0,
2001-05-08, 01:41:00,VALID,917.273,VALID,0,VALID,99.0135,VALID,-0.0169808,VALID,19.1491,VALID,318,VALID,0,
2001-05-08, 01:42:00,VALID,917.275,VALID,0,VALID,99.0262,VALID,0.0169808,VALID,19.156,VALID,317,VALID,0,
2001-05-08, 01:43:00,VALID,917.27,VALID,0,VALID,99.0402,VALID,0.0169808,VALID,19.1647,VALID,318,VALID,0,
2001-05-08, 01:44:00,VALID,917.268,VALID,0,VALID,99.0555,VALID,0.0169808,VALID,19.1749,VALID,318,VALID,0,
2001-05-08, 01:45:00,VALID,917.265,VALID,0,VALID,99.0593,VALID,0,VALID,19.1714,VALID,318,VALID,0,
2001-05-08, 01:46:00,VALID,917.257,VALID,0,VALID,99.0516,VALID,0.0169808,VALID,19.1518,VALID,318,VALID,0,
2001-05-08, 01:47:00,VALID,917.245,VALID,0,VALID,99.0542,VALID,0,VALID,19.1396,VALID,318,VALID,0,
2001-05-08, 01:48:00,VALID,917.247,VALID,0,VALID,99.0644,VALID,0,VALID,19.1429,VALID,318,VALID,0,
2001-05-08, 01:49:00,VALID,917.244,VALID,0,VALID,99.0758,VALID,-0.0169808,VALID,19.1525,VALID,318,VALID,0,
2001-05-08, 01:50:00,VALID,917.231,VALID,0,VALID,99.0911,VALID,0,VALID,19.1652,VALID,318,VALID,0,
2001-05-08, 01:51:00,VALID,917.23,VALID,0,VALID,99.0987,VALID,0,VALID,19.1687,VALID,318,VALID,0,
2001-05-08, 01:52:00,VALID,917.219,VALID,0,VALID,99.1089,VALID,0,VALID,19.1588,VALID,332,VALID,0,
2001-05-08, 01:53:00,VALID,917.216,VALID,0,VALID,99.1203,VALID,0,VALID,19.1659,VALID,332,VALID,0,
2001-05-08, 01:54:00,VALID,917.205,VALID,0,VALID,99.1406,VALID,0.0849042,VALID,19.1675,VALID,332,VALID,0,
2001-05-08, 01:55:00,VALID,917.197,VALID,0,VALID,99.1445,VALID,0.101885,VALID,19.1769,VALID,333,VALID,0,
2001-05-08, 01:56:00,VALID,917.191,VALID,0,VALID,99.1572,VALID,0.101885,VALID,19.1899,VALID,334,VALID,0,
2001-05-08, 01:57:00,VALID,917.17,VALID,0,VALID,99.1623,VALID,0.0849042,VALID,19.1859,VALID,334,VALID,0,
2001-05-08, 01:58:00,VALID,917.168,VALID,0,VALID,99.1763,VALID,0.101885,VALID,19.1956,VALID,335,VALID,0,
2001-05-08, 01:59:00,VALID,917.163,VALID,0,VALID,99.175,VALID,0.101885,VALID,19.2122,VALID,335,VALID,0,
2001-05-08, 02:00:00,VALID,917.149,VALID,0,VALID,99.1559,VALID,0.101885,VALID,19.209,VALID,335,VALID,0,
2001-05-08, 02:01:00,VALID,917.14,VALID,0,VALID,99.1546,VALID,0.101885,VALID,19.1928,VALID,335,VALID,0,
2001-05-08, 02:02:00,VALID,917.133,VALID,0,VALID,99.1546,VALID,0.0849042,VALID,19.1832,VALID,327,VALID,0,
2001-05-08, 02:03:00,VALID,917.124,VALID,0,VALID,99.1521,VALID,0.101885,VALID,19.1799,VALID,306,VALID,0,
2001-05-08, 02:04:00,VALID,917.12,VALID,0,VALID,99.1508,VALID,0.101885,VALID,19.1631,VALID,306,VALID,0,
2001-05-08, 02:05:00,VALID,917.119,VALID,0,VALID,99.1775,VALID,0.101885,VALID,19.1633,VALID,306,VALID,0,
2001-05-08, 02:06:00,VALID,917.101,VALID,0,VALID,99.1788,VALID,0.0849042,VALID,19.1732,VALID,306,VALID,0,
2001-05-08, 02:07:00,VALID,917.096,VALID,0,VALID,99.1852,VALID,0.0849042,VALID,19.1762,VALID,306,VALID,0,
2001-05-08, 02:08:00,VALID,917.105,VALID,0,VALID,99.1915,VALID,0.0849042,VALID,19.1866,VALID,306,VALID,0,
2001-05-08, 02:09:00,VALID,917.089,VALID,0,VALID,99.1915,VALID,0,VALID,19.1906,VALID,331,VALID,0,
2001-05-08, 02:10:00,VALID,917.084,VALID,0,VALID,99.1864,VALID,0,VALID,19.1811,VALID,84,VALID,0,
2001-05-08, 02:11:00,VALID,917.089,VALID,0,VALID,99.1763,VALID,0,VALID,19.1424,VALID,84,VALID,0,
2001-05-08, 02:12:00,VALID,917.076,VALID,0,VALID,99.1775,VALID,0.0339617,VALID,19.1324,VALID,87,VALID,0,
2001-05-08, 02:13:00,VALID,917.073,VALID,0,VALID,99.1813,VALID,0.0169808,VALID,19.1396,VALID,98,VALID,0,
2001-05-08, 02:14:00,VALID,917.06,VALID,0,VALID,99.2017,VALID,0.0169808,VALID,19.129,VALID,102,VALID,0,
2001-05-08, 02:15:00,VALID,917.062,VALID,0,VALID,99.2068,VALID,0.0169808,VALID,19.1257,VALID,102,VALID,0,
2001-05-08, 02:16:00,VALID,917.038,VALID,0,VALID,99.203,VALID,0,VALID,19.129,VALID,102,VALID,0,
2001-05-08, 02:17:00,VALID,917.033,VALID,0,VALID,99.2093,VALID,0,VALID,19.1329,VALID,103,VALID,0,
2001-05-08, 02:18:00,VALID,917.025,VALID,0,VALID,99.2233,VALID,0.0169808,VALID,19.1324,VALID,104,VALID,0,
2001-05-08, 02:19:00,VALID,917.023,VALID,0,VALID,99.2157,VALID,0.0169808,VALID,19.1287,VALID,104,VALID,0,
2001-05-08, 02:20:00,VALID,917.031,VALID,0,VALID,99.2182,VALID,0.0169808,VALID,19.1225,VALID,104,VALID,0,
2001-05-08, 02:21:00,VALID,917.01,VALID,0,VALID,99.2157,VALID,0.0169808,VALID,19.1163,VALID,104,VALID,0,
2001-05-08, 02:22:00,VALID,916.997,VALID,0,VALID,99.2208,VALID,0.0169808,VALID,19.1098,VALID,104,VALID,0,
2001-05-08, 02:23:00,VALID,916.994,VALID,0,VALID,99.2347,VALID,0,VALID,19.1195,VALID,104,VALID,0,
2001-05-08, 02:24:00,VALID,916.975,VALID,0,VALID,99.2271,VALID,0,VALID,19.1093,VALID,104,VALID,0,
2001-05-08, 02:25:00,VALID,916.972,VALID,0,VALID,99.2233,VALID,0.0339617,VALID,19.1133,VALID,104,VALID,0,
2001-05-08, 02:26:00,VALID,916.957,VALID,0,VALID,99.208,VALID,-0.0169808,VALID,19.0743,VALID,102,VALID,0,
2001-05-08, 02:27:00,VALID,916.948,VALID,0,VALID,99.1966,VALID,0.0169808,VALID,19.0383,VALID,99,VALID,0,
2001-05-08, 02:28:00,VALID,916.951,VALID,0,VALID,99.1839,VALID,0.0169808,VALID,19.0166,VALID,92,VALID,0,
2001-05-08, 02:29:00,VALID,916.94,VALID,0,VALID,99.175,VALID,-0.0169808,VALID,18.9642,VALID,84,VALID,0,
2001-05-08, 02:30:00,VALID,916.928,VALID,0,VALID,99.1877,VALID,0,VALID,18.9518,VALID,90,VALID,0,
2001-05-08, 02:31:00,VALID,916.922,VALID,0,VALID,99.1915,VALID,0,VALID,18.9451,VALID,87,VALID,0,
2001-05-08, 02:32:00,VALID,916.93,VALID,0,VALID,99.2017,VALID,0.0169808,VALID,18.9322,VALID,86,VALID,0,
2001-05-08, 02:33:00,VALID,916.922,VALID,0,VALID,99.222,VALID,0,VALID,18.9359,VALID,96,VALID,0,
2001-05-08, 02:34:00,VALID,916.916,VALID,0,VALID,99.2297,VALID,0.0169808,VALID,18.9292,VALID,96,VALID,0,
2001-05-08, 02:35:00,VALID,916.927,VALID,0,VALID,99.236,VALID,0,VALID,18.9163,VALID,101,VALID,0,
2001-05-08, 02:36:00,VALID,916.918,VALID,0,VALID,99.25,VALID,0,VALID,18.9264,VALID,100,VALID,0,
2001-05-08, 02:37:00,VALID,916.926,VALID,0,VALID,99.2615,VALID,0.0169808,VALID,18.9257,VALID,100,VALID,0,
2001-05-08, 02:38:00,VALID,916.937,VALID,0,VALID,99.2754,VALID,0,VALID,18.9451,VALID,100,VALID,0,
2001-05-08, 02:39:00,VALID,916.942,VALID,0,VALID,99.2793,VALID,-0.0339617,VALID,18.955,VALID,100,VALID,0,
2001-05-08, 02:40:00,VALID,916.917,VALID,0,VALID,99.2907,VALID,0,VALID,18.9843,VALID,100,VALID,0,
2001-05-08, 02:41:00,VALID,916.914,VALID,0,VALID,99.2932,VALID,-0.0339617,VALID,18.9878,VALID,100,VALID,0,
2001-05-08, 02:42:00,VALID,916.914,VALID,0,VALID,99.2907,VALID,0,VALID,19.0044,VALID,100,VALID,0,
2001-05-08, 02:43:00,VALID,916.891,VALID,0,VALID,99.2996,VALID,0,VALID,18.9938,VALID,100,VALID,0,
2001-05-08, 02:44:00,VALID,916.875,VALID,0,VALID,99.3098,VALID,-0.0169808,VALID,19.0003,VALID,100,VALID,0,
2001-05-08, 02:45:00,VALID,916.853,VALID,0,VALID,99.3072,VALID,-0.0169808,VALID,19.0137,VALID,100,VALID,0,
2001-05-08, 02:46:00,VALID,916.845,VALID,0,VALID,99.3149,VALID,-0.0169808,VALID,19.0266,VALID,100,VALID,0,
2001-05-08, 02:47:00,VALID,916.835,VALID,0,VALID,99.3174,VALID,0,VALID,19.0293,VALID,100,VALID,0,
2001-05-08, 02:48:00,VALID,916.823,VALID,0,VALID,99.3136,VALID,0,VALID,19.0358,VALID,100,VALID,0,
2001-05-08, 02:49:00,VALID,916.815,VALID,0,VALID,99.325,VALID,0,VALID,19.0554,VALID,100,VALID,0,
2001-05-08, 02:50:00,VALID,916.811,VALID,0,VALID,99.325,VALID,-0.0169808,VALID,19.0584,VALID,103,VALID,0,
2001-05-08, 02:51:00,VALID,916.803,VALID,0,VALID,99.3212,VALID,0,VALID,19.0554,VALID,108,VALID,0,
2001-05-08, 02:52:00,VALID,916.807,VALID,0,VALID,99.3276,VALID,-0.0169808,VALID,19.0683,VALID,104,VALID,0,
2001-05-08, 02:53:00,VALID,916.811,VALID,0,VALID,99.3149,VALID,-0.0339617,VALID,19.0455,VALID,95,VALID,0,
2001-05-08, 02:54:00,VALID,916.821,VALID,0,VALID,99.3009,VALID,-0.0339617,VALID,19.0199,VALID,95,VALID,0,
2001-05-08, 02:55:00,VALID,916.814,VALID,0,VALID,99.3047,VALID,0,VALID,19.0129,VALID,96,VALID,0,
2001-05-08, 02:56:00,VALID,916.809,VALID,0,VALID,99.3149,VALID,0,VALID,19.0194,VALID,96,VALID,0,
2001-05-08, 02:57:00,VALID,916.788,VALID,0,VALID,99.3098,VALID,-0.0169808,VALID,19.0137,VALID,96,VALID,0,
2001-05-08, 02:58:00,VALID,916.763,VALID,0,VALID,99.3072,VALID,0,VALID,19.0134,VALID,96,VALID,0,
2001-05-08, 02:59:00,VALID,916.751,VALID,0,VALID,99.3085,VALID,0,VALID,19.007,VALID,96,VALID,0,
2001-05-08, 03:00:00,VALID,916.727,VALID,0,VALID,99.3098,VALID,0,VALID,19.0005,VALID,96,VALID,0,
2001-05-08, 03:01:00,VALID,916.722,VALID,0,VALID,99.311,VALID,-0.0169808,VALID,18.9901,VALID,96,VALID,0,
2001-05-08, 03:02:00,VALID,916.691,VALID,0,VALID,99.3136,VALID,0,VALID,19.0072,VALID,96,VALID,0,
2001-05-08, 03:03:00,VALID,916.712,VALID,0,VALID,99.3187,VALID,-0.0169808,VALID,19.0107,VALID,96,VALID,0,
2001-05-08, 03:04:00,VALID,916.705,VALID,0,VALID,99.3225,VALID,-0.0509425,VALID,18.9977,VALID,96,VALID,0,
2001-05-08, 03:05:00,VALID,916.708,VALID,0,VALID,99.3199,VALID,0,VALID,18.9973,VALID,96,VALID,0,
2001-05-08, 03:06:00,VALID,916.701,VALID,0,VALID,99.3339,VALID,-0.0339617,VALID,18.9906,VALID,96,VALID,0,
2001-05-08, 03:07:00,VALID,916.696,VALID,0,VALID,99.3149,VALID,-0.0339617,VALID,19.001,VALID,96,VALID,0,
2001-05-08, 03:08:00,VALID,916.695,VALID,0,VALID,99.3161,VALID,-0.0679233,VALID,18.9913,VALID,105,VALID,0,
2001-05-08, 03:09:00,VALID,916.687,VALID,0,VALID,99.3136,VALID,-0.0849042,VALID,18.9684,VALID,128,VALID,0,
2001-05-08, 03:10:00,VALID,916.673,VALID,0,VALID,99.3263,VALID,-0.0679233,VALID,18.9721,VALID,128,VALID,0,
2001-05-08, 03:11:00,VALID,916.665,VALID,0,VALID,99.3339,VALID,-0.0339617,VALID,18.9881,VALID,128,VALID,0,
2001-05-08, 03:12:00,VALID,916.666,VALID,0,VALID,99.3428,VALID,-0.0169808,VALID,18.9977,VALID,128,VALID,0,
2001-05-08, 03:13:00,VALID,916.662,VALID,0,VALID,99.3479,VALID,-0.0169808,VALID,18.9943,VALID,128,VALID,0,
2001-05-08, 03:14:00,VALID,916.641,VALID,0,VALID,99.3466,VALID,-0.0169808,VALID,18.9943,VALID,128,VALID,0,
2001-05-08, 03:15:00,VALID,916.641,VALID,0,VALID,99.3581,VALID,-0.0509425,VALID,19.0104,VALID,128,VALID,0,
2001-05-08, 03:16:00,VALID,916.626,VALID,0,VALID,99.3454,VALID,-0.0169808,VALID,19.0201,VALID,128,VALID,0,
2001-05-08, 03:17:00,VALID,916.627,VALID,0,VALID,99.3606,VALID,-0.0509425,VALID,19.0363,VALID,128,VALID,0,
2001-05-08, 03:18:00,VALID,916.619,VALID,0,VALID,99.3721,VALID,-0.0509425,VALID,19.0594,VALID,128,VALID,0,
2001-05-08, 03:19:00,VALID,916.609,VALID,0,VALID,99.3568,VALID,-0.0339617,VALID,19.0489,VALID,128,VALID,0,
2001-05-08, 03:20:00,VALID,916.596,VALID,0,VALID,99.325,VALID,-0.0169808,VALID,19.0462,VALID,132,VALID,0,
2001-05-08, 03:21:00,VALID,916.578,VALID,0,VALID,99.3339,VALID,-0.0169808,VALID,19.0169,VALID,167,VALID,0,
2001-05-08, 03:22:00,VALID,916.551,VALID,0,VALID,99.3492,VALID,-0.0339617,VALID,19.0174,VALID,171,VALID,0,
2001-05-08, 03:23:00,VALID,916.543,VALID,0,VALID,99.3428,VALID,-0.0509425,VALID,19.0042,VALID,187,VALID,0,
2001-05-08, 03:24:00,VALID,916.525,VALID,0,VALID,99.3517,VALID,0.0509425,VALID,18.9898,VALID,207,VALID,0,
2001-05-08, 03:25:00,VALID,916.499,VALID,0,VALID,99.3428,VALID,0.0509425,VALID,18.9931,VALID,210,VALID,0,
2001-05-08, 03:26:00,VALID,916.488,VALID,0,VALID,99.3517,VALID,0.0509425,VALID,18.9991,VALID,210,VALID,0,
2001-05-08, 03:27:00,VALID,916.491,VALID,0,VALID,99.3644,VALID,0.0509425,VALID,19.0125,VALID,210,VALID,0,
2001-05-08, 03:28:00,VALID,916.481,VALID,0,VALID,99.3606,VALID,0.0849042,VALID,19.0284,VALID,210,VALID,0,
2001-05-08, 03:29:00,VALID,916.478,VALID,0,VALID,99.3695,VALID,0.0849042,VALID,19.0353,VALID,210,VALID,0,
2001-05-08, 03:30:00,VALID,916.482,VALID,0,VALID,99.3708,VALID,0.0849042,VALID,19.0413,VALID,210,VALID,0,
2001-05-08, 03:31:00,VALID,916.474,VALID,0,VALID,99.3746,VALID,0.0849042,VALID,19.0542,VALID,210,VALID,0,
2001-05-08, 03:32:00,VALID,916.448,VALID,0,VALID,99.3784,VALID,0.101885,VALID,19.0473,VALID,210,VALID,0,
2001-05-08, 03:33:00,VALID,916.44,VALID,0,VALID,99.3848,VALID,0.0849042,VALID,19.0639,VALID,210,VALID,0,
2001-05-08, 03:34:00,VALID,916.44,VALID,0,VALID,99.3835,VALID,0.0849042,VALID,19.0766,VALID,210,VALID,0,
2001-05-08, 03:35:00,VALID,916.432,VALID,0,VALID,99.3873,VALID,0.0849042,VALID,19.0763,VALID,210,VALID,0,
2001-05-08, 03:36:00,VALID,916.438,VALID,0,VALID,99.3823,VALID,0.0849042,VALID,19.0828,VALID,210,VALID,0,
2001-05-08, 03:37:00,VALID,916.437,VALID,0,VALID,99.3797,VALID,0.101885,VALID,19.0828,VALID,210,VALID,0,
2001-05-08, 03:38:00,VALID,916.443,VALID,0,VALID,99.3734,VALID,0.0849042,VALID,19.0897,VALID,210,VALID,0,
2001-05-08, 03:39:00,VALID,916.445,VALID,0,VALID,99.3772,VALID,0.0339617,VALID,19.087,VALID,210,VALID,0,
2001-05-08, 03:40:00,VALID,916.441,VALID,0,VALID,99.3734,VALID,0.0169808,VALID,19.087,VALID,210,VALID,0,
2001-05-08, 03:41:00,VALID,916.442,VALID,0,VALID,99.3746,VALID,0,VALID,19.0967,VALID,210,VALID,0,
2001-05-08, 03:42:00,VALID,916.449,VALID,0,VALID,99.3873,VALID,0.0169808,VALID,19.12,VALID,209,VALID,0,
2001-05-08, 03:43:00,VALID,916.437,VALID,0,VALID,99.3886,VALID,0,VALID,19.1299,VALID,209,VALID,0,
2001-05-08, 03:44:00,VALID,916.444,VALID,0,VALID,99.3912,VALID,0.0169808,VALID,19.1483,VALID,209,VALID,0,
2001-05-08, 03:45:00,VALID,916.447,VALID,0,VALID,99.3835,VALID,0.0169808,VALID,19.158,VALID,206,VALID,0,
2001-05-08, 03:46:00,VALID,916.454,VALID,0,VALID,99.3759,VALID,0.0169808,VALID,19.1615,VALID,203,VALID,0,
2001-05-08, 03:47:00,VALID,916.443,VALID,0,VALID,99.3581,VALID,0.0509425,VALID,19.1615,VALID,203,VALID,0,